CSG-3

Last updated on Mon Sep 07 2026 00:02:46 GMT+0000 (Coordinated Universal Time)

1 67304U 26001A 26249.48174049 .00000170 00000+0 27936-4 0 9997 2 67304 97.8914 71.9244 0001393 86.8438 273.2935 14.82149890 36501
UTC large
Height (km)
Speed (km/s)
/
Latitude / Longitude
Inclination (degrees)
Orbital Period (minutes)
Azimuth
Elevation
Range (km)
Doppler Factor

Next 0 passes for location: London (51.5072 / 0.1276)

No passes found over London.